H1 CPF 2 NER 2025 11 14 9 318 01 glonass135 H2 1600801 9135 41330 2025 11 14 0 0 0 2025 11 17 23 45 0 900 1 1 0 0 0 1 H9 10 0 60993 0.00000 0 10363195.427 -4697912.590 22849640.653 10 0 60993 900.00000 0 10584341.923 -1870875.402 23148825.297 10 0 60993 1800.00000 0 11016204.391 941506.985 22999227.578 10 0 60993 2700.00000 0 11645679.579 3669895.118 22403552.679 10 0 60993 3600.00000 0 12447789.343 6248672.542 21373147.581 10 0 60993 4500.00000 0 13386707.005 8618430.089 19927798.578 10 0 60993 5400.00000 0 14417259.099 10728195.204 18095365.688 10 0 60993 6300.00000 0 15486841.158 12537313.895 15911259.371 10 0 60993 7200.00000 0 16537668.442 14016906.714 13417768.123 10 0 60993 8100.00000 0 17509267.835 15150837.625 10663248.541 10 0 60993 9000.00000 0 18341106.310 15936154.609 7701192.466 10 0 60993 9900.00000 0 18975244.812 16382983.004 4589188.721 10 0 60993 10800.00000 0 19358904.589 16513875.668 1387799.499 10 0 60993 11700.00000 0 19446836.151 16362647.266 -1840626.311 10 0 60993 12600.00000 0 19203388.835 15972742.187 -5033178.805 10 0 60993 13500.00000 0 18604191.544 15395205.809 -8127626.576 10 0 60993 14400.00000 0 17637371.599 14686346.068 -11063644.351 10 0 60993 15300.00000 0 16304258.450 13905185.745 -13784003.160 10 0 60993 16200.00000 0 14619541.164 13110814.977 -16235698.294 10 0 60993 17100.00000 0 12610872.043 12359757.619 -18370991.841 10 0 60993 18000.00000 0 10317932.583 11703464.355 -20148348.467 10 0 60993 18900.00000 0 7791000.909 11186039.638 -21533245.814 10 0 60993 19800.00000 0 5089080.979 10842299.147 -22498843.689 10 0 60993 20700.00000 0 2277672.279 10696239.929 -23026499.400 10 0 60993 21600.00000 0 -573726.397 10759987.412 -23106119.976 10 0 60993 22500.00000 0 -3394274.673 11033262.905 -22736345.410 10 0 60993 23400.00000 0 -6114499.052 11503392.938 -21924560.503 10 0 60993 24300.00000 0 -8668939.728 12145858.778 -20686736.209 10 0 60993 25200.00000 0 -10998626.439 12925361.692 -19047104.671 10 0 60993 26100.00000 0 -13053281.550 13797357.919 -17037675.220 10 0 60993 27000.00000 0 -14793160.325 14709997.732 -14697601.525 10 0 60993 27900.00000 0 -16190453.755 15606386.272 -12072412.759 10 0 60993 28800.00000 0 -17230197.611 16427070.570 -9213124.138 10 0 60993 29700.00000 0 -17910652.130 17112647.938 -6175244.342 10 0 60993 30600.00000 0 -18243138.725 17606386.133 -3017699.103 10 0 60993 31500.00000 0 -18251342.604 17856745.343 198308.176 10 0 60993 32400.00000 0 -17970112.341 17819696.412 3410476.934 10 0 60993 33300.00000 0 -17443808.092 17460738.305 6556608.593 10 0 60993 34200.00000 0 -16724268.695 16756530.476 9575801.595 10 0 60993 35100.00000 0 -15868483.458 15696071.849 12409619.883 10 0 60993 36000.00000 0 -14936066.359 14281376.936 15003213.036 10 0 60993 36900.00000 0 -13986638.343 12527620.361 17306367.307 10 0 60993 37800.00000 0 -13077226.907 10462742.936 19274468.192 10 0 60993 38700.00000 0 -12259791.274 8126534.475 20869356.962 10 0 60993 39600.00000 0 -11578976.171 5569229.944 22060065.373 10 0 60993 40500.00000 0 -11070187.736 2849675.426 22823415.068 10 0 60993 41400.00000 0 -10758071.843 33137.968 23144470.421 10 0 60993 42300.00000 0 -10655458.688 -2811151.928 23016836.075 10 0 60993 43200.00000 0 -10762818.313 -5612625.271 22442792.974 10 0 60993 44100.00000 0 -11068250.817 -8302059.967 21433269.450 10 0 60993 45000.00000 0 -11548012.908 -10814216.566 20007646.726 10 0 60993 45900.00000 0 -12167560.142 -13090315.924 18193401.110 10 0 60993 46800.00000 0 -12883062.573 -15080256.239 16025588.204 10 0 60993 47700.00000 0 -13643331.398 -16744477.088 13546177.516 10 0 60993 48600.00000 0 -14392076.485 -18055392.363 10803248.934 10 0 60993 49500.00000 0 -15070400.124 -18998331.519 7850065.534 10 0 60993 50400.00000 0 -15619421.639 -19571948.961 4744040.087 10 0 60993 51300.00000 0 -15982921.325 -19788083.758 1545615.201 10 0 60993 52200.00000 0 -16109890.603 -19671075.141 -1682920.725 10 0 60993 53100.00000 0 -15956878.821 -19256562.607 -4878657.777 10 0 60993 54000.00000 0 -15490035.382 -18589821.677 -7979303.867 10 0 60993 54900.00000 0 -14686758.716 -17723706.415 -10924413.489 10 0 60993 55800.00000 0 -13536880.386 -16716286.914 -13656580.241 10 0 60993 56700.00000 0 -12043332.589 -15628283.104 -16122568.356 10 0 60993 57600.00000 0 -10222269.551 -14520404.883 -18274359.883 10 0 60993 58500.00000 0 -8102636.831 -13450712.460 -20070096.150 10 0 60993 59400.00000 0 -5725206.177 -12472109.523 -21474894.687 10 0 60993 60300.00000 0 -3141116.366 -11630075.796 -22461525.663 10 0 60993 61200.00000 0 -409981.330 -10960734.822 -23010935.032 10 0 60993 62100.00000 0 2402355.013 -10489338.098 -23112604.953 10 0 60993 63000.00000 0 5226323.255 -10229228.560 -22764745.456 10 0 60993 63900.00000 0 7991287.740 -10181325.844 -21974314.733 10 0 60993 64800.00000 0 10628249.982 -10334153.440 -20756868.826 10 0 60993 65700.00000 0 13072484.258 -10664404.945 -19136244.706 10 0 60993 66600.00000 0 15265996.536 -11138023.952 -17144083.865 10 0 60993 67500.00000 0 17159705.720 -11711750.641 -14819206.491 10 0 60993 68400.00000 0 18715257.996 -12335068.730 -12206848.943 10 0 60993 69300.00000 0 19906400.539 -12952469.909 -9357779.817 10 0 60993 70200.00000 0 20719859.345 -13505939.819 -6327311.962 10 0 60993 71100.00000 0 21155686.632 -13937560.658 -3174229.707 10 0 60993 72000.00000 0 21227065.255 -14192120.826 40347.930 10 0 60993 72900.00000 0 20959580.143 -14219622.004 3254146.258 10 0 60993 73800.00000 0 20389988.698 -13977578.503 6404933.668 10 0 60993 74700.00000 0 19564542.766 -13433012.516 9431717.407 10 0 60993 75600.00000 0 18536933.093 -12564061.692 12275913.895 10 0 60993 76500.00000 0 17365942.622 -11361131.537 14882471.772 10 0 60993 77400.00000 0 16112906.710 -9827544.025 17200926.813 10 0 60993 78300.00000 0 14839086.091 -7979654.539 19186369.334 10 0 60993 79200.00000 0 13603061.797 -5846431.107 20800306.325 10 0 60993 80100.00000 0 12458260.157 -3468511.894 22011402.501 10 0 60993 81000.00000 0 11450710.599 -896778.289 22796086.619 10 0 60993 81900.00000 0 10617129.355 1809499.286 23139011.709 10 0 60993 82800.00000 0 9983408.861 4584868.064 23033360.341 10 0 60993 83700.00000 0 9563576.024 7360162.819 22480988.615 10 0 60993 84600.00000 0 9359263.370 10065138.463 21492405.299 10 0 60993 85500.00000 0 9359715.931 12631157.769 20086585.335 10 0 60994 0.00000 0 9542334.629 14993823.607 18290620.041 10 0 60994 900.00000 0 9873734.592 17095448.201 16139208.150 10 0 60994 1800.00000 0 10311274.791 18887253.578 13673998.426 10 0 60994 2700.00000 0 10804995.836 20331215.349 10942791.955 10 0 60994 3600.00000 0 11299884.603 21401468.875 7998620.774 10 0 60994 4500.00000 0 11738370.196 22085219.322 4898719.158 10 0 60994 5400.00000 0 12062945.244 22383116.302 1703407.556 10 0 60994 6300.00000 0 12218800.564 22309076.609 -1525088.792 10 0 60994 7200.00000 0 12156360.115 21889562.045 -4723862.630 10 0 60994 8100.00000 0 11833606.970 21162342.802 -7830563.803 10 0 60994 9000.00000 0 11218099.728 20174798.988 -10784629.040 10 0 60994 9900.00000 0 10288591.933 18981832.913 -13528476.790 10 0 60994 10800.00000 0 9036184.083 17643481.502 -16008642.264 10 0 60994 11700.00000 0 7464957.975 16222331.027 -18176829.276 10 0 60994 12600.00000 0 5592065.420 14780844.698 -19990857.384 10 0 60994 13500.00000 0 3447266.829 13378717.025 -21415485.360 10 0 60994 14400.00000 0 1071938.670 12070367.305 -22423094.889 10 0 60994 15300.00000 0 -1482408.598 10902678.172 -22994221.528 10 0 60994 16200.00000 0 -4156039.919 9913074.167 -23117923.290 10 0 60994 17100.00000 0 -6883252.325 9128020.383 -22791980.692 10 0 60994 18000.00000 0 -9594884.537 8562003.026 -22022925.447 10 0 60994 18900.00000 0 -12220974.841 8217033.075 -20825898.447 10 0 60994 19800.00000 0 -14693456.832 8082691.987 -19224340.849 10 0 60994 20700.00000 0 -16948781.301 8136715.512 -17249525.291 10 0 60994 21600.00000 0 -18930356.047 8346089.151 -14939937.117 10 0 60994 22500.00000 0 -20590703.278 8668607.418 -12340518.230 10 0 60994 23400.00000 0 -21893246.156 9054829.882 -9501788.739 10 0 60994 24300.00000 0 -22813651.768 9450350.545 -6478863.635 10 0 60994 25200.00000 0 -23340676.247 9798284.300 -3330383.692 10 0 60994 26100.00000 0 -23476478.557 10041865.379 -117381.280 10 0 60994 27000.00000 0 -23236391.473 10127048.328 3097897.142 10 0 60994 27900.00000 0 -22648160.791 10005002.096 6253189.405 10 0 60994 28800.00000 0 -21750685.680 9634392.547 9287414.126 10 0 60994 29700.00000 0 -20592313.615 8983357.637 12141842.853 10 0 60994 30600.00000 0 -19228761.527 8031092.309 14761225.956 10 0 60994 31500.00000 0 -17720750.014 6768976.463 17094851.395 10 0 60994 32400.00000 0 -16131449.059 5201198.139 19097516.842 10 0 60994 33300.00000 0 -14523841.215 3344844.873 20730397.369 10 0 60994 34200.00000 0 -12958111.465 1229457.989 21961792.749 10 0 60994 35100.00000 0 -11489171.752 -1103933.421 22767740.631 10 0 60994 36000.00000 0 -10164422.561 -3604260.782 23132484.119 10 0 60994 36900.00000 0 -9021844.312 -6212288.679 23048784.739 10 0 60994 37800.00000 0 -8088497.820 -8862836.411 22518074.374 10 0 60994 38700.00000 0 -7379496.410 -11487258.458 21550442.449 10 0 60994 39600.00000 0 -6897492.953 -14016082.695 20164457.434 10 0 60994 40500.00000 0 -6632703.915 -16381698.230 18386824.708 10 0 60994 41400.00000 0 -6563470.192 -18520981.992 16251885.789 10 0 60994 42300.00000 0 -6657332.078 -20377754.994 13800967.030 10 0 60994 43200.00000 0 -6872573.921 -21904965.631 11081588.991 10 0 60994 44100.00000 0 -7160173.910 -23066508.089 8146550.623 10 0 60994 45000.00000 0 -7466076.861 -23838598.727 5052905.390 10 0 60994 45900.00000 0 -7733693.570 -24210651.582 1860849.031 10 0 60994 46800.00000 0 -7906520.114 -24185615.107 -1367459.116 10 0 60994 47700.00000 0 -7930764.810 -23779755.136 -4569117.379 10 0 60994 48600.00000 0 -7757869.744 -23021892.733 -7681720.604 10 0 60994 49500.00000 0 -7346818.019 -21952129.056 -10644590.944 10 0 60994 50400.00000 0 -6666126.859 -20620111.477 -13399974.925 10 0 60994 51300.00000 0 -5695440.207 -19082914.999 -15894181.944 10 0 60994 52200.00000 0 -4426651.678 -17402629.471 -18078640.656 10 0 60994 53100.00000 0 -2864509.042 -15643755.601 -19910851.677 10 0 60994 54000.00000 0 -1026673.732 -13870520.666 -21355217.500 10 0 60994 54900.00000 0 1056767.729 -12144227.815 -22383733.374 10 0 60994 55800.00000 0 3344320.089 -10520750.963 -22976526.001 10 0 60994 56700.00000 0 5784580.893 -9048280.485 -23122230.292 10 0 60994 57600.00000 0 8318164.135 -7765413.764 -22818197.782 10 0 60994 58500.00000 0 10879965.410 -6699669.542 -22070533.776 10 0 60994 59400.00000 0 13401673.894 -5866486.775 -20893963.646 10 0 60994 60300.00000 0 15814426.417 -5268747.917 -19311531.972 10 0 60994 61200.00000 0 18051493.308 -4896844.466 -17354141.364 10 0 60994 62100.00000 0 20050884.640 -4729279.702 -15059940.735 10 0 60994 63000.00000 0 21757769.177 -4733781.144 -12473575.530 10 0 60994 63900.00000 0 23126606.284 -4868874.049 -9645314.925 10 0 60994 64800.00000 0 24122903.264 -5085848.170 -6630073.207 10 0 60994 65700.00000 0 24724526.289 -5331033.833 -3486344.392 10 0 60994 66600.00000 0 24922511.684 -5548290.706 -275070.740 10 0 60994 67500.00000 0 24721345.192 -5681604.055 2941533.125 10 0 60994 68400.00000 0 24138698.796 -5677679.053 6101178.083 10 0 60994 69300.00000 0 23204637.197 -5488424.018 9142697.612 10 0 60994 70200.00000 0 21960327.780 -5073218.288 12007221.633 10 0 60994 71100.00000 0 20456308.324 -4400869.524 14639305.185 10 0 60994 72000.00000 0 18750384.751 -3451178.198 16987990.958 10 0 60994 72900.00000 0 16905246.230 -2216043.293 19007786.129 10 0 60994 73800.00000 0 14985896.369 -700062.169 20659535.588 10 0 60994 74700.00000 0 13057006.645 1079401.682 21911175.491 10 0 60994 75600.00000 0 11180301.238 3092687.416 22738353.292 10 0 60994 76500.00000 0 9412081.133 5298824.663 23124902.680 10 0 60994 77400.00000 0 7800989.667 7647001.487 23063164.238 10 0 60994 78300.00000 0 6386111.886 10078453.826 22554145.334 10 0 60994 79200.00000 0 5195486.515 12528700.195 21607515.343 10 0 60994 80100.00000 0 4245092.562 14930030.811 20241435.181 10 0 60994 81000.00000 0 3538353.118 17214149.323 18482223.025 10 0 60994 81900.00000 0 3066177.592 19314858.384 16363861.095 10 0 60994 82800.00000 0 2807541.240 21170677.667 13927351.449 10 0 60994 83700.00000 0 2730578.256 22727285.063 11219931.833 10 0 60994 84600.00000 0 2794142.886 23939678.412 8294165.617 10 0 60994 85500.00000 0 2949772.902 24773966.199 5206922.782 10 0 60995 0.00000 0 3143972.259 25208710.793 2018271.823 10 0 60995 900.00000 0 3320715.758 25235766.612 -1209697.306 10 0 60995 1800.00000 0 3424068.208 24860576.215 -4414091.153 10 0 60995 2700.00000 0 3400805.868 24101911.713 -7532452.415 10 0 60995 3600.00000 0 3202926.866 22991071.218 -10503991.365 10 0 60995 4500.00000 0 2789942.263 21570564.520 -13270785.099 10 0 60995 5400.00000 0 2130848.653 19892343.751 -15778919.419 10 0 60995 6300.00000 0 1205696.950 18015654.468 -17979549.763 10 0 60995 7200.00000 0 6689.502 16004598.677 -19829859.471 10 0 60995 8100.00000 0 -1461241.963 13925513.473 -21293896.149 10 0 60995 9000.00000 0 -3180402.679 11844276.427 -22343269.738 10 0 60995 9900.00000 0 -5120847.247 9823651.536 -22957698.955 10 0 60995 10800.00000 0 -7241416.652 7920787.244 -23125396.174 10 0 60995 11700.00000 0 -9491256.259 6184971.002 -22843284.208 10 0 60995 12600.00000 0 -11811750.950 4655733.493 -22117041.835 10 0 60995 13500.00000 0 -14138796.246 3361380.376 -20960978.400 10 0 60995 14400.00000 0 -16405310.407 2318011.047 -19397740.988 10 0 60995 15300.00000 0 -18543882.679 1529063.231 -17457860.879 10 0 60995 16200.00000 0 -20489447.464 985400.022 -15179148.926 10 0 60995 17100.00000 0 -22181873.403 665933.243 -12605952.205 10 0 60995 18000.00000 0 -23568360.121 538754.675 -9788286.861 10 0 60995 18900.00000 0 -24605543.582 562725.606 -6780864.234 10 0 60995 19800.00000 0 -25261223.363 689456.238 -3642029.246 10 0 60995 20700.00000 0 -25515640.880 865590.445 -432631.633 10 0 60995 21600.00000 0 -25362256.419 1035298.949 2785148.297 10 0 60995 22500.00000 0 -24807993.597 1142875.530 5948997.017 10 0 60995 23400.00000 0 -23872941.961 1135326.891 8997665.466 10 0 60995 24300.00000 0 -22589530.758 964847.279 11872144.569 10 0 60995 25200.00000 0 -21001208.683 591073.961 14516796.630 10 0 60995 26100.00000 0 -19160684.613 -16971.116 16880421.583 10 0 60995 27000.00000 0 -17127802.246 -879335.125 18917238.446 10 0 60995 27900.00000 0 -14967136.417 -2004048.851 20587764.006 10 0 60995 28800.00000 0 -12745410.134 -3386548.199 21859572.559 10 0 60995 29700.00000 0 -10528838.606 -5009628.199 22707922.761 10 0 60995 30600.00000 0 -8380509.466 -6843933.161 23116239.871 10 0 60995 31500.00000 0 -6357906.934 -8848964.637 23076444.132 10 0 60995 32400.00000 0 -4510681.922 -10974567.463 22589118.611 10 0 60995 33300.00000 0 -2878760.089 -13162834.385 21663512.489 10 0 60995 34200.00000 0 -1490866.291 -15350352.148 20317378.649 10 0 60995 35100.00000 0 -363526.855 -17470697.404 18576647.268 10 0 60995 36000.00000 0 499408.444 -19457079.850 16474940.155 10 0 60995 36900.00000 0 1106704.273 -21245023.128 14052933.658 10 0 60995 37800.00000 0 1479139.642 -22774971.692 11357581.011 10 0 60995 38700.00000 0 1648394.636 -23994714.177 8441208.041 10 0 60995 39600.00000 0 1655470.644 -24861520.722 5360499.048 10 0 60995 40500.00000 0 1548710.909 -25343903.233 2175392.326 10 0 60995 41400.00000 0 1381505.599 -25422923.046 -1052092.949 10 0 60995 42300.00000 0 1209779.541 -25092989.422 -4259074.788 10 0 60995 43200.00000 0 1089370.470 -24362113.911 -7383046.527 10 0 60995 44100.00000 0 1073410.657 -23251608.879 -10363109.424 10 0 60995 45000.00000 0 1209824.886 -21795242.379 -13141174.043 10 0 60995 45900.00000 0 1539052.792 -20037884.981 -15663105.470 10 0 60995 46800.00000 0 2092093.880 -18033705.926 -17879788.693 10 0 60995 47700.00000 0 2888959.582 -15843995.314 -19748092.335 10 0 60995 48600.00000 0 3937598.977 -13534704.787 -21231711.384 10 0 60995 49500.00000 0 5233344.368 -11173810.889 -22301872.352 10 0 60995 50400.00000 0 6758900.520 -8828612.415 -22937887.422 10 0 60995 51300.00000 0 8484878.073 -6563075.304 -23127547.438 10 0 60995 52200.00000 0 10370848.573 -4435336.054 -22867347.032 10 0 60995 53100.00000 0 12366876.514 -2495467.363 -22162538.589 10 0 60995 54000.00000 0 14415463.825 -783598.149 -21027015.167 10 0 60995 54900.00000 0 16453825.101 671535.304 -19483025.725 10 0 60995 55800.00000 0 18416398.216 1853548.665 -17560729.223 10 0 60995 56700.00000 0 20237485.380 2758841.700 -15297597.090 10 0 60995 57600.00000 0 21853914.529 3396487.764 -12737676.283 10 0 60995 58500.00000 0 23207610.280 3787587.788 -9930727.765 10 0 60995 59400.00000 0 24247967.715 3964118.228 -6931257.400 10 0 60995 60300.00000 0 24933930.632 3967323.364 -3797458.145 10 0 60995 61200.00000 0 25235688.352 3845721.128 -590084.085 10 0 60995 62100.00000 0 25135921.101 3652807.493 2628722.089 10 0 60995 63000.00000 0 24630542.837 3444556.726 5796625.784 10 0 60995 63900.00000 0 23728911.203 3276823.036 8852298.679 10 0 60995 64800.00000 0 22453496.344 3202752.978 11736595.813 10 0 60995 65700.00000 0 20839022.596 3270317.262 14393689.641 10 0 60995 66600.00000 0 18931118.718 3520065.541 16772139.928 10 0 60995 67500.00000 0 16784532.380 3983198.334 18825879.813 10 0 60995 68400.00000 0 14460982.423 4680037.116 20515099.925 10 0 60995 69300.00000 0 12026737.090 5618957.156 21807014.305 10 0 60995 70200.00000 0 9550017.583 6795828.664 22676494.052 10 0 60995 71100.00000 0 7098333.356 8193990.975 23106556.871 10 0 60995 72000.00000 0 4735858.449 9784762.580 23088703.132 10 0 60995 72900.00000 0 2520956.580 11528467.794 22623091.635 10 0 60995 73800.00000 0 503956.787 13375939.467 21718550.964 10 0 60995 74700.00000 0 -1274728.513 15270437.267 20392425.110 10 0 60995 75600.00000 0 -2786065.067 17149903.519 18670254.959 10 0 60995 76500.00000 0 -4013377.029 18949464.083 16585300.235 10 0 60995 77400.00000 0 -4952804.658 20604070.837 14177909.554 10 0 60995 78300.00000 0 -5613219.996 22051175.709 11494749.342 10 0 60995 79200.00000 0 -6015603.641 23233324.062 8587905.356 10 0 60995 80100.00000 0 -6191908.598 24100557.828 5513873.514 10 0 60995 81000.00000 0 -6183459.102 24612526.158 2332459.353 10 0 60995 81900.00000 0 -6038952.401 24740213.192 -894392.230 10 0 60995 82800.00000 0 -5812148.813 24467208.443 -4103813.388 10 0 60995 83700.00000 0 -5559349.072 23790464.602 -7233251.021 10 0 60995 84600.00000 0 -5336767.423 22720509.415 -10221700.192 10 0 60995 85500.00000 0 -5197913.636 21281101.695 -13010907.571 10 0 60996 0.00000 0 -5191096.762 19508345.608 -15546519.717 10 0 60996 900.00000 0 -5357158.263 17449299.474 -17779153.757 10 0 60996 1800.00000 0 -5727532.072 15160140.419 -19665365.201 10 0 60996 2700.00000 0 -6322714.842 12703959.475 -21168497.951 10 0 60996 3600.00000 0 -7151211.965 10148282.717 -22259396.338 10 0 60996 4500.00000 0 -8209004.190 7562422.131 -22916966.946 10 0 60996 5400.00000 0 -9479557.402 5014767.705 -23128579.693 10 0 60996 6300.00000 0 -10934374.868 2570133.954 -22890301.291 10 0 60996 7200.00000 0 -12534068.302 287271.367 -22206957.604 10 0 60996 8100.00000 0 -14229902.189 -1783354.389 -21092024.857 10 0 60996 9000.00000 0 -15965746.097 -3601424.300 -19567352.935 10 0 60996 9900.00000 0 -17680352.698 -5138193.146 -17662727.127 10 0 60996 10800.00000 0 -19309865.813 -6377424.695 -15415277.734 10 0 60996 11700.00000 0 -20790453.452 -7315798.433 -12868749.603 10 0 60996 12600.00000 0 -22060955.772 -7962773.441 -10072646.312 10 0 60996 13500.00000 0 -23065437.533 -8339917.644 -7081265.874 10 0 60996 14400.00000 0 -23755538.783 -8479732.829 -3952646.804 10 0 60996 15300.00000 0 -24092526.074 -8424026.704 -747444.965 10 0 60996 16200.00000 0 -24048959.113 -8221901.857 2472237.194 10 0 60996 17100.00000 0 -23609903.818 -7927447.205 5644046.711 10 0 60996 18000.00000 0 -22773641.633 -7597229.596 8706578.728 10 0 60996 18900.00000 0 -21551845.815 -7287691.255 11600555.132 10 0 60996 19800.00000 0 -19969217.423 -7052562.422 14269961.191 10 0 60996 20700.00000 0 -18062595.977 -6940397.642 16663119.039 10 0 60996 21600.00000 0 -15879581.223 -6992338.912 18733678.256 10 0 60996 22500.00000 0 -13476722.464 -7240199.388 20441505.333 10 0 60996 23400.00000 0 -10917349.487 -7704948.056 21753455.714 10 0 60996 24300.00000 0 -8269133.764 -8395659.324 22644014.195 10 0 60996 25200.00000 0 -5601479.516 -9308972.341 23095791.755 10 0 60996 26100.00000 0 -2982851.345 -10429083.973 23099869.303 10 0 60996 27000.00000 0 -478147.817 -11728277.416 22655981.400 10 0 60996 27900.00000 0 1853771.292 -13167966.322 21772535.709 10 0 60996 28800.00000 0 3962302.278 -14700212.892 20466466.685 10 0 60996 29700.00000 0 5806967.719 -16269658.492 18762924.990 10 0 60996 30600.00000 0 7358861.976 -17815787.822 16694807.032 10 0 60996 31500.00000 0 8601611.529 -19275433.146 14302132.185 10 0 60996 32400.00000 0 9531809.728 -20585414.406 11631278.266 10 0 60996 33300.00000 0 10158907.351 -21685204.567 8734088.874 10 0 60996 34200.00000 0 10504563.192 -22519507.624 5666869.198 10 0 60996 35100.00000 0 10601481.935 -23040639.769 2489289.457 10 0 60996 36000.00000 0 10491788.454 -23210611.835 -736782.460 10 0 60996 36900.00000 0 10225007.829 -23002823.432 -3948495.679 10 0 60996 37800.00000 0 9855737.504 -22403295.452 -7083253.541 10 0 60996 38700.00000 0 9441111.500 -21411387.181 -10079947.782 10 0 60996 39600.00000 0 9038165.774 -20039966.349 -12880163.998 10 0 60996 40500.00000 0 8701218.136 -18315023.940 -15429333.360 10 0 60996 41400.00000 0 8479375.455 -16274749.438 -17677806.757 10 0 60996 42300.00000 0 8414275.314 -13968105.360 -19581829.357 10 0 60996 43200.00000 0 8538158.894 -11452961.270 -21104395.963 10 0 60996 44100.00000 0 8872357.412 -8793866.047 -22215970.322 10 0 60996 45000.00000 0 9426256.430 -6059552.379 -22895054.593 10 0 60996 45900.00000 0 10196781.676 -3320278.317 -23128598.498 10 0 60996 46800.00000 0 11168427.679 -645117.155 -22912241.116 10 0 60996 47700.00000 0 12313827.358 1900691.421 -22250381.667 10 0 60996 48600.00000 0 13594837.813 4258219.134 -21156079.057 10 0 60996 49500.00000 0 14964095.912 6377053.777 -19650783.250 10 0 60996 50400.00000 0 16366977.590 8217140.435 -17763904.717 10 0 60996 51300.00000 0 17743878.070 9750184.608 -15532231.163 10 0 60996 52200.00000 0 19032716.998 10960561.041 -12999203.549 10 0 60996 53100.00000 0 20171563.273 11845692.831 -10214065.971 10 0 60996 54000.00000 0 21101269.627 12415887.524 -7230906.204 10 0 60996 54900.00000 0 21768006.808 12693639.470 -4107605.652 10 0 60996 55800.00000 0 22125591.587 12712429.822 -904719.088 10 0 60996 56700.00000 0 22137511.584 12515076.277 2315694.288 10 0 60996 57600.00000 0 21778562.623 12151703.164 5491266.178 10 0 60996 58500.00000 0 21036030.514 11677418.009 8560518.174 10 0 60996 59400.00000 0 19910368.081 11149792.591 11464041.859 10 0 60996 60300.00000 0 18415339.142 10626254.360 14145637.973 10 0 60996 61200.00000 0 16577623.118 10161497.541 16553393.447 10 0 60996 62100.00000 0 14435896.075 9805022.207 18640676.468 10 0 60996 63000.00000 0 12039425.427 9598904.175 20367031.293 10 0 60996 63900.00000 0 9446235.429 9575888.968 21698956.382 10 0 60996 64800.00000 0 6720918.025 9757889.697 22610551.525 10 0 60996 65700.00000 0 3932178.170 10154952.130 23084021.935 10 0 60996 66600.00000 0 1150213.636 10764731.040 23110029.639 10 0 60996 67500.00000 0 -1555963.759 11572500.942 22687885.116 10 0 60996 68400.00000 0 -4121155.915 12551702.315 21825574.805 10 0 60996 69300.00000 0 -6486447.319 13665002.245 20539622.860 10 0 60996 70200.00000 0 -8601413.291 14865826.931 18854788.477 10 0 60996 71100.00000 0 -10425976.148 16100303.613 16803603.092 10 0 60996 72000.00000 0 -11931831.949 17309531.917 14425754.812 10 0 60996 72900.00000 0 -13103387.989 18432090.257 11767330.521 10 0 60996 73800.00000 0 -13938171.394 19406672.339 8879929.142 10 0 60996 74700.00000 0 -14446691.188 20174742.545 5819662.462 10 0 60996 75600.00000 0 -14651759.322 20683097.482 2646062.624 10 0 60996 76500.00000 0 -14587299.211 20886224.264 -579082.298 10 0 60996 77400.00000 0 -14296692.323 20748354.182 -3792941.227 10 0 60996 78300.00000 0 -13830733.439 20245123.111 -6932876.746 10 0 60996 79200.00000 0 -13245282.172 19364766.555 -9937680.003 10 0 60996 80100.00000 0 -12598711.617 18108797.103 -12748778.130 10 0 60996 81000.00000 0 -11949263.783 16492134.328 -15311389.118 10 0 60996 81900.00000 0 -11352425.480 14542680.630 -17575600.258 10 0 60996 82800.00000 0 -10858437.238 12300360.391 -19497348.036 10 0 60996 83700.00000 0 -10510041.916 9815662.721 -21039279.741 10 0 60996 84600.00000 0 -10340569.003 7147749.146 -22171479.806 10 0 60996 85500.00000 0 -10372435.894 4362205.946 -22872046.888 99